Time,TemperatureF,DewpointF,PressureIn,WindDirection,WindDirectionDegrees,WindSpeedMPH,WindSpeedGustMPH,Humidity,HourlyPrecipIn,Conditions,Clouds,dailyrainin,SolarRadiationWatts/m^2,SoftwareType,DateUTC
2013-02-04 00:21:00,47.0,24.0,-100.00,WNW,291,7.0,15.0,40,0.00,,,0.00,0.000000,,2013-02-04 08:21:00,
2013-02-04 00:31:00,47.0,24.0,-100.00,WNW,291,7.0,15.0,40,0.00,,,0.00,0.000000,,2013-02-04 08:31:00,
2013-02-04 00:41:00,47.0,24.0,-100.00,WNW,291,7.0,15.0,40,0.00,,,0.00,0.000000,,2013-02-04 08:41:00,
2013-02-04 00:52:00,47.0,24.0,-100.00,WNW,291,7.0,15.0,40,0.00,,,0.00,0.000000,,2013-02-04 08:52:00,
2013-02-04 01:21:00,43.0,23.0,-100.00,NE,54,2.0,9.0,45,0.00,,,0.00,0.000000,,2013-02-04 09:21:00,
2013-02-04 01:31:00,43.0,23.0,-100.00,NE,54,2.0,9.0,45,0.00,,,0.00,0.000000,,2013-02-04 09:31:00,
2013-02-04 01:41:00,43.0,23.0,-100.00,NE,54,2.0,9.0,45,0.00,,,0.00,0.000000,,2013-02-04 09:41:00,
2013-02-04 01:51:00,43.0,23.0,-100.00,NE,54,2.0,9.0,45,0.00,,,0.00,0.000000,,2013-02-04 09:51:00,
2013-02-04 02:21:00,42.0,26.0,-100.00,WNW,282,4.0,7.0,52,0.00,,,0.00,0.000000,,2013-02-04 10:21:00,
2013-02-04 02:32:00,42.0,26.0,-100.00,WNW,282,4.0,7.0,52,0.00,,,0.00,0.000000,,2013-02-04 10:32:00,
2013-02-04 02:41:00,42.0,26.0,-100.00,WNW,282,4.0,7.0,52,0.00,,,0.00,0.000000,,2013-02-04 10:41:00,
2013-02-04 02:51:00,42.0,26.0,-100.00,WNW,282,4.0,7.0,52,0.00,,,0.00,0.000000,,2013-02-04 10:51:00,
2013-02-04 03:22:00,41.0,26.0,-100.00,West,277,5.0,7.0,55,0.00,,,0.00,0.000000,,2013-02-04 11:22:00,
2013-02-04 03:32:00,41.0,26.0,-100.00,West,277,5.0,7.0,55,0.00,,,0.00,0.000000,,2013-02-04 11:32:00,
2013-02-04 03:42:00,41.0,26.0,-100.00,West,277,5.0,7.0,55,0.00,,,0.00,0.000000,,2013-02-04 11:42:00,
2013-02-04 03:52:00,41.0,26.0,-100.00,West,277,5.0,7.0,55,0.00,,,0.00,0.000000,,2013-02-04 11:52:00,
2013-02-04 04:21:00,39.0,24.0,-100.00,West,274,5.0,9.0,55,0.00,,,0.00,0.000000,,2013-02-04 12:21:00,
2013-02-04 04:32:00,39.0,24.0,-100.00,West,274,5.0,9.0,55,0.00,,,0.00,0.000000,,2013-02-04 12:32:00,
2013-02-04 04:42:00,39.0,24.0,-100.00,West,274,5.0,9.0,55,0.00,,,0.00,0.000000,,2013-02-04 12:42:00,
2013-02-04 04:52:00,39.0,24.0,-100.00,West,274,5.0,9.0,55,0.00,,,0.00,0.000000,,2013-02-04 12:52:00,
2013-02-04 05:21:00,42.0,24.0,-100.00,WNW,285,4.0,7.0,48,0.00,,,0.00,0.000000,,2013-02-04 13:21:00,
2013-02-04 05:32:00,42.0,24.0,-100.00,WNW,285,4.0,7.0,48,0.00,,,0.00,0.000000,,2013-02-04 13:32:00,
2013-02-04 05:41:00,42.0,24.0,-100.00,WNW,285,4.0,7.0,48,0.00,,,0.00,0.000000,,2013-02-04 13:41:00,
2013-02-04 05:51:00,42.0,24.0,-100.00,WNW,285,4.0,7.0,48,0.00,,,0.00,0.000000,,2013-02-04 13:51:00,
2013-02-04 06:21:00,41.0,25.0,-100.00,WNW,288,4.0,6.0,53,0.00,,,0.00,0.000000,,2013-02-04 14:21:00,
2013-02-04 06:32:00,41.0,25.0,-100.00,WNW,288,4.0,6.0,53,0.00,,,0.00,0.000000,,2013-02-04 14:32:00,
2013-02-04 06:42:00,41.0,25.0,-100.00,WNW,288,4.0,6.0,53,0.00,,,0.00,0.000000,,2013-02-04 14:42:00,
2013-02-04 06:52:00,41.0,25.0,-100.00,WNW,288,4.0,6.0,53,0.00,,,0.00,0.000000,,2013-02-04 14:52:00,
2013-02-04 07:23:00,42.0,26.0,-100.00,East,88,4.0,5.0,53,0.00,,,0.00,0.000000,,2013-02-04 15:23:00,
2013-02-04 07:33:00,42.0,26.0,-100.00,East,88,4.0,5.0,53,0.00,,,0.00,0.000000,,2013-02-04 15:33:00,
2013-02-04 07:43:00,42.0,26.0,-100.00,East,88,4.0,5.0,53,0.00,,,0.00,0.000000,,2013-02-04 15:43:00,
2013-02-04 07:52:00,42.0,26.0,-100.00,East,88,4.0,5.0,53,0.00,,,0.00,0.000000,,2013-02-04 15:52:00,
2013-02-04 10:22:00,63.0,31.0,30.16,ESE,104,5.0,7.0,30,-99.99,,,0.00,507.000000,,2013-02-04 18:22:00,
2013-02-04 10:31:00,63.0,31.0,30.16,ESE,104,5.0,7.0,30,-99.99,,,0.00,507.000000,,2013-02-04 18:31:00,
2013-02-04 11:22:00,65.0,27.0,30.15,ENE,71,7.0,12.0,24,-99.99,,,0.00,658.000000,,2013-02-04 19:22:00,
2013-02-04 11:31:00,65.0,27.0,30.15,ENE,71,7.0,12.0,24,-99.99,,,0.00,658.000000,,2013-02-04 19:31:00,
2013-02-04 11:41:00,65.0,27.0,30.15,ENE,71,7.0,12.0,24,-99.99,,,0.00,658.000000,,2013-02-04 19:41:00,
2013-02-04 11:51:00,65.0,27.0,30.15,ENE,71,7.0,12.0,24,-99.99,,,0.00,658.000000,,2013-02-04 19:51:00,
2013-02-04 12:21:00,65.0,27.0,30.13,East,101,8.0,14.0,24,0.00,,,0.00,748.000000,,2013-02-04 20:21:00,
2013-02-04 12:32:00,65.0,27.0,30.13,East,101,8.0,14.0,24,0.00,,,0.00,748.000000,,2013-02-04 20:32:00,
2013-02-04 12:42:00,65.0,27.0,30.13,East,101,8.0,14.0,24,0.00,,,0.00,748.000000,,2013-02-04 20:42:00,
2013-02-04 12:52:00,65.0,27.0,30.13,East,101,8.0,14.0,24,0.00,,,0.00,748.000000,,2013-02-04 20:52:00,
2013-02-04 13:22:00,68.0,28.0,30.10,ESE,110,6.0,14.0,22,0.00,,,0.00,767.000000,,2013-02-04 21:22:00,
2013-02-04 13:31:00,68.0,28.0,30.10,ESE,110,6.0,14.0,22,0.00,,,0.00,767.000000,,2013-02-04 21:31:00,
2013-02-04 13:42:00,68.0,28.0,30.10,ESE,110,6.0,14.0,22,0.00,,,0.00,767.000000,,2013-02-04 21:42:00,
2013-02-04 13:51:00,68.0,28.0,30.10,ESE,110,6.0,14.0,22,0.00,,,0.00,767.000000,,2013-02-04 21:51:00,
2013-02-04 14:21:00,69.0,26.0,30.06,ESE,102,5.0,12.0,20,0.00,,,0.00,715.000000,,2013-02-04 22:21:00,
2013-02-04 14:32:00,69.0,26.0,30.06,ESE,102,5.0,12.0,20,0.00,,,0.00,715.000000,,2013-02-04 22:32:00,
2013-02-04 14:41:00,69.0,26.0,30.06,ESE,102,5.0,12.0,20,0.00,,,0.00,715.000000,,2013-02-04 22:41:00,
2013-02-04 14:51:00,69.0,26.0,30.06,ESE,102,5.0,12.0,20,0.00,,,0.00,715.000000,,2013-02-04 22:51:00,
2013-02-04 15:21:00,72.0,25.0,30.05,East,96,4.0,12.0,17,0.00,,,0.00,594.000000,,2013-02-04 23:21:00,
2013-02-04 15:32:00,72.0,25.0,30.05,East,96,4.0,12.0,17,0.00,,,0.00,594.000000,,2013-02-04 23:32:00,
2013-02-04 15:41:00,72.0,25.0,30.05,East,96,4.0,12.0,17,0.00,,,0.00,594.000000,,2013-02-04 23:41:00,
2013-02-04 15:52:00,72.0,25.0,30.05,East,96,4.0,12.0,17,0.00,,,0.00,594.000000,,2013-02-04 23:52:00,
2013-02-04 16:21:00,72.0,23.0,30.05,East,79,3.0,10.0,16,0.00,,,0.00,412.000000,,2013-02-05 00:21:00,
2013-02-04 16:31:00,72.0,23.0,30.05,East,79,3.0,10.0,16,0.00,,,0.00,412.000000,,2013-02-05 00:31:00,
2013-02-04 16:42:00,72.0,23.0,30.05,East,79,3.0,10.0,16,0.00,,,0.00,412.000000,,2013-02-05 00:42:00,
2013-02-04 16:51:00,72.0,23.0,30.05,East,79,3.0,10.0,16,0.00,,,0.00,412.000000,,2013-02-05 00:51:00,
2013-02-04 17:21:00,68.0,23.0,30.04,ESE,116,2.0,65.0,18,0.00,,,0.00,186.000000,,2013-02-05 01:21:00,
2013-02-04 17:32:00,68.0,23.0,30.04,ESE,116,2.0,65.0,18,0.00,,,0.00,186.000000,,2013-02-05 01:32:00,
2013-02-04 17:42:00,68.0,23.0,30.04,ESE,116,2.0,65.0,18,0.00,,,0.00,186.000000,,2013-02-05 01:42:00,
2013-02-04 17:51:00,68.0,23.0,30.04,ESE,116,2.0,65.0,18,0.00,,,0.00,186.000000,,2013-02-05 01:51:00,
2013-02-04 18:21:00,54.0,26.0,30.04,West,269,4.0,8.0,33,0.00,,,0.00,7.000000,,2013-02-05 02:21:00,
2013-02-04 19:21:00,54.0,26.0,-100.00,West,274,5.0,8.0,33,-99.99,,,-99.99,0.000000,,2013-02-05 03:21:00,
2013-02-04 19:31:00,54.0,26.0,-100.00,West,274,5.0,8.0,33,-99.99,,,-99.99,0.000000,,2013-02-05 03:31:00,
2013-02-04 19:41:00,54.0,26.0,-100.00,West,274,5.0,8.0,33,-99.99,,,-99.99,0.000000,,2013-02-05 03:41:00,
2013-02-04 19:51:00,54.0,26.0,-100.00,West,274,5.0,8.0,33,-99.99,,,-99.99,0.000000,,2013-02-05 03:51:00,
2013-02-04 20:21:00,51.0,23.0,-100.00,WNW,285,7.0,7.0,33,0.00,,,0.00,0.000000,,2013-02-05 04:21:00,
2013-02-04 20:32:00,51.0,23.0,-100.00,WNW,285,7.0,7.0,33,0.00,,,0.00,0.000000,,2013-02-05 04:32:00,
2013-02-04 20:41:00,51.0,23.0,-100.00,WNW,285,7.0,7.0,33,0.00,,,0.00,0.000000,,2013-02-05 04:41:00,
2013-02-04 20:52:00,51.0,23.0,-100.00,WNW,285,7.0,7.0,33,0.00,,,0.00,0.000000,,2013-02-05 04:52:00,
2013-02-04 21:21:00,50.0,24.0,-100.00,WNW,285,7.0,9.0,36,0.00,,,0.00,0.000000,,2013-02-05 05:21:00,
2013-02-04 21:32:00,50.0,24.0,-100.00,WNW,285,7.0,9.0,36,0.00,,,0.00,0.000000,,2013-02-05 05:32:00,
2013-02-04 21:42:00,50.0,24.0,-100.00,WNW,285,7.0,9.0,36,0.00,,,0.00,0.000000,,2013-02-05 05:42:00,
2013-02-04 21:52:00,50.0,24.0,-100.00,WNW,285,7.0,9.0,36,0.00,,,0.00,0.000000,,2013-02-05 05:52:00,
2013-02-04 22:21:00,50.0,24.0,-100.00,West,280,7.0,9.0,36,0.00,,,0.00,0.000000,,2013-02-05 06:21:00,
2013-02-04 22:32:00,50.0,24.0,-100.00,West,280,7.0,9.0,36,0.00,,,0.00,0.000000,,2013-02-05 06:32:00,
2013-02-04 22:41:00,50.0,24.0,-100.00,West,280,7.0,9.0,36,0.00,,,0.00,0.000000,,2013-02-05 06:41:00,
2013-02-04 22:51:00,50.0,24.0,-100.00,West,280,7.0,9.0,36,0.00,,,0.00,0.000000,,2013-02-05 06:51:00,
2013-02-04 23:22:00,50.0,24.0,-100.00,West,272,6.0,10.0,36,0.00,,,-99.99,0.000000,,2013-02-05 07:22:00,
2013-02-04 23:31:00,50.0,24.0,-100.00,West,272,6.0,10.0,36,0.00,,,-99.99,0.000000,,2013-02-05 07:31:00,
2013-02-04 23:41:00,50.0,24.0,-100.00,West,272,6.0,10.0,36,0.00,,,-99.99,0.000000,,2013-02-05 07:41:00,
2013-02-04 23:51:00,50.0,24.0,-100.00,West,272,6.0,10.0,36,0.00,,,-99.99,0.000000,,2013-02-05 07:51:00,